Wind_Speed
14 14 14 14 14 14 14 14 14 15 15 15 15 14 14 13 13 13 13 13 13 13 12 12 12 12 10 9 9 10 10 11 10 10 9 8 7 7 6 8 12 14 14 14 15 15 17 18 18 18 17 15 11 10 9 5 6 5 5 5 7 7 9 9 8 10 10 2 7 10 11 13 13 17 19 17 16 14 16 16 16 16 14 17 21 25 28 28
15 15 14 14 14 14 14 14 14 14 14 14 14 14 14 13 13 13 13 13 13 13 12 12 13 12 11 10 9 9 10 10 10 10 9 9 9 9 8 8 10 13 14 12 12 13 14 16 18 18 17 15 12 12 9 5 6 5 4 5 7 7 8 8 8 12 11 2 7 9 8 10 14 17 18 18 17 15 16 17 16 16 18 23 25 27 27 26
16 17 16 15 14 13 13 13 13 13 13 13 13 13 13 13 13 13 13 13 13 13 13 12 12 12 12 10 9 9 9 8 10 10 10 11 11 10 9 8 8 11 14 13 13 14 14 16 18 17 17 16 14 13 9 7 7 4 2 4 7 7 7 6 11 14 10 4 7 9 7 9 14 17 17 17 17 17 17 16 18 20 24 27 27 28 27 25
16 17 18 17 16 14 13 13 13 13 13 13 13 13 13 13 13 13 13 12 13 13 13 12 12 12 12 11 10 9 8 7 9 11 12 12 11 10 10 9 8 10 15 16 15 17 18 20 19 17 17 17 16 14 10 8 6 4 3 6 5 7 6 4 11 15 11 6 7 9 6 7 12 15 17 17 17 18 18 16 18 22 25 27 28 28 27 25
16 17 17 18 17 16 15 14 12 12 12 12 12 13 13 13 13 13 12 12 12 13 13 13 12 12 11 11 10 9 7 6 9 10 11 12 12 12 10 10 10 11 15 18 17 18 20 22 23 21 19 18 18 16 12 9 7 5 2 6 5 5 5 5 7 10 10 7 7 10 7 7 10 14 15 16 17 16 16 15 17 22 22 22 26 27 27 26
16 17 17 17 17 17 16 15 14 12 11 11 11 12 13 13 13 12 12 12 12 12 13 13 13 12 11 10 10 9 7 6 8 8 9 12 12 13 12 11 11 12 15 18 19 19 19 20 23 23 22 21 20 16 13 9 4 5 3 6 6 6 7 6 6 6 9 8 4 8 9 8 10 14 14 15 16 15 17 16 16 21 20 19 23 25 25 25
16 17 17 17 17 17 16 16 15 13 12 11 11 11 12 13 13 12 11 11 11 11 11 12 13 12 11 10 9 10 9 9 8 6 7 10 12 12 13 13 13 12 12 16 20 19 19 21 21 22 23 22 19 16 15 12 9 12 8 8 10 10 11 9 6 4 5 7 5 4 8 9 10 13 12 16 19 18 19 17 16 18 19 20 23 24 25 24
16 16 17 17 17 17 16 15 15 14 13 12 11 10 11 12 12 12 11 10 10 10 10 11 12 12 11 9 9 11 11 11 11 8 6 8 10 11 13 14 14 12 10 13 17 17 20 21 20 20 21 18 15 15 14 12 13 15 9 7 10 13 13 13 10 7 3 5 5 3 7 9 10 11 10 12 16 16 16 15 14 16 19 23 24 24 26 24
17 16 16 16 17 17 16 15 14 14 13 13 13 11 11 11 11 11 11 10 9 10 10 10 10 11 11 9 10 11 12 11 11 11 9 9 10 11 13 14 15 13 11 12 15 19 20 19 18 17 16 13 12 12 10 8 10 11 9 9 11 14 16 17 14 10 5 3 4 2 5 10 11 12 12 10 11 13 13 12 14 16 21 25 24 25 25 23
18 16 16 15 16 16 17 16 15 14 13 13 13 13 12 11 11 11 10 9 9 9 9 9 9 10 10 9 10 10 11 10 8 10 11 11 12 11 12 13 15 14 13 13 16 19 16 14 15 14 12 10 10 9 8 9 8 8 13 12 10 12 16 21 16 12 8 4 3 1 4 10 12 12 13 12 13 14 12 12 14 17 20 23 25 26 25 23
18 18 16 16 15 16 16 16 15 14 13 13 13 13 13 12 11 11 10 10 9 8 8 8 8 8 9 9 9 9 11 8 7 9 9 10 12 11 10 11 13 14 14 14 15 15 13 16 16 16 14 11 9 7 7 8 10 12 14 13 9 6 15 23 17 15 12 6 3 2 6 11 11 11 13 14 14 14 13 14 16 18 19 22 25 26 25 24
18 18 17 16 16 16 16 15 14 13 13 12 12 12 12 12 12 11 10 9 9 8 7 8 8 8 8 9 9 9 10 9 7 8 7 8 10 11 10 10 12 14 15 13 14 15 17 20 19 18 15 13 11 7 7 10 12 13 11 11 8 4 12 18 16 16 13 8 4 4 9 11 10 10 13 14 13 14 15 15 17 19 20 23 25 26 25 24
17 17 17 16 16 16 16 16 14 13 12 12 12 11 11 12 11 10 10 10 9 8 7 7 8 7 7 8 8 9 10 10 8 8 8 6 8 10 11 12 12 14 15 13 15 17 19 22 21 18 15 14 14 10 10 11 11 12 10 10 9 7 11 14 15 17 14 11 8 4 8 10 8 9 11 12 12 15 17 17 19 20 21 24 25 26 26 25
17 16 16 15 15 16 16 16 14 12 11 11 10 10 11 11 10 10 10 9 9 8 8 7 7 7 7 7 8 8 9 9 8 8 10 7 7 10 11 13 13 15 16 15 18 21 22 24 22 20 18 15 13 12 13 13 11 11 11 13 12 10 11 13 15 18 17 14 10 8 9 8 7 9 10 11 12 14 17 18 19 20 19 22 24 25 26 25
16 15 15 14 15 15 15 15 14 13 11 10 9 9 10 10 10 9 9 10 9 8 8 7 6 6 6 7 8 7 7 6 5 7 9 8 9 10 13 14 13 16 17 16 22 25 25 25 23 23 22 17 13 14 16 16 13 10 10 12 13 12 10 12 15 18 18 15 13 13 10 10 9 9 11 12 12 14 17 18 19 21 20 21 24 25 25 24
16 15 15 15 15 14 14 14 14 13 11 9 9 9 9 10 10 9 10 9 9 8 7 5 5 6 5 5 7 5 5 4 4 4 6 7 10 11 14 15 14 17 19 19 24 27 27 26 24 24 23 19 16 15 15 17 16 13 11 10 13 15 13 16 20 20 19 18 18 17 13 12 11 10 14 13 13 15 18 18 18 21 22 22 23 24 25 24
16 16 15 15 15 14 13 13 12 12 11 9 8 9 9 10 9 10 10 9 9 8 7 5 6 7 6 5 4 2 3 5 3 2 3 6 9 11 15 17 16 18 20 22 26 28 27 26 24 22 23 22 19 16 15 17 20 16 12 11 14 16 16 18 19 20 22 23 23 22 18 16 11 10 16 15 14 16 18 17 17 19 21 22 23 24 25 26
17 16 15 15 15 14 13 13 11 11 10 9 9 9 9 9 10 10 10 10 10 8 7 8 8 8 7 7 5 1 4 4 2 1 1 5 8 10 13 16 16 17 22 25 27 28 27 26 21 19 21 23 24 22 18 19 21 19 15 14 14 15 19 20 18 18 22 25 25 25 24 20 15 13 16 16 15 16 16 16 16 19 20 20 22 24 25 27
17 16 15 15 14 13 13 12 11 10 9 9 9 8 9 10 10 10 11 11 10 9 7 8 10 11 11 10 6 1 3 2 1 2 2 6 9 10 11 14 15 16 23 28 27 26 26 23 20 20 23 25 28 26 22 18 18 18 15 14 13 13 17 20 18 17 21 25 27 29 29 25 21 18 16 16 16 15 16 17 17 19 20 20 21 23 25 27
17 16 15 14 13 13 12 12 11 10 9 9 9 8 8 9 10 12 13 13 12 11 9 7 10 13 12 10 5 4 6 3 3 5 5 7 12 13 11 11 14 15 21 26 26 25 23 21 21 23 23 24 26 25 23 19 17 17 15 16 17 19 22 20 16 15 18 25 29 30 31 30 26 21 15 15 17 18 20 20 19 20 21 21 21 23 25 27
17 16 15 14 13 12 11 11 11 10 9 8 8 8 9 8 9 10 11 13 14 15 11 7 9 13 10 9 8 7 8 6 6 9 7 7 11 16 13 12 14 15 18 21 20 20 20 21 23 22 19 19 20 20 20 19 17 17 16 17 19 22 23 20 15 15 16 25 32 33 34 34 30 22 16 17 18 19 21 21 19 20 21 20 20 22 24 25
17 16 14 14 13 11 11 10 10 10 9 8 6 7 8 8 7 7 7 10 13 15 14 9 10 11 9 7 8 8 7 7 10 9 6 5 7 11 13 15 15 14 17 19 17 16 18 21 21 17 16 15 16 17 16 16 16 16 16 16 19 20 18 16 11 10 13 27 33 37 39 37 32 23 18 17 17 17 17 16 15 17 20 20 21 22 23 25
18 17 15 14 13 12 10 9 9 10 9 9 7 6 8 7 6 6 6 7 11 14 14 10 11 10 7 6 7 8 8 9 9 7 6 5 5 8 12 14 12 12 15 17 19 18 17 16 14 12 13 14 15 17 17 17 18 18 18 18 20 18 16 18 10 6 10 25 28 35 38 33 28 22 20 18 17 17 17 16 15 16 17 17 19 21 23 26
18 18 17 14 13 12 10 9 8 8 9 11 10 7 7 6 5 6 7 6 7 11 11 9 11 10 7 6 6 6 10 9 4 7 8 4 6 8 10 11 8 10 12 12 16 19 17 12 9 8 10 12 14 16 18 19 20 20 21 22 22 18 16 20 15 11 11 13 20 32 29 26 29 25 24 23 20 22 21 20 21 20 19 17 18 20 22 25
18 18 18 16 13 11 11 9 8 9 9 11 12 7 2 3 3 4 4 4 2 6 7 8 9 10 7 5 7 8 11 8 2 8 9 5 8 10 9 10 9 10 10 8 10 13 14 10 8 10 11 13 15 15 16 17 19 19 21 23 22 18 16 16 13 14 13 6 20 35 22 18 31 30 27 26 26 28 26 25 25 23 23 23 24 23 23 24
19 18 18 18 14 11 11 9 8 10 10 9 9 7 3 1 2 1 2 2 2 5 9 9 5 7 7 3 7 11 11 7 5 10 8 4 8 11 10 12 12 11 9 9 11 12 11 8 9 13 13 14 16 15 14 16 20 20 19 20 19 16 17 17 14 15 9 6 22 32 18 11 24 32 31 29 29 31 30 29 28 26 26 27 28 27 25 25
20 18 17 18 15 11 9 9 9 12 11 7 7 6 4 3 2 2 2 3 4 7 10 9 7 7 7 3 8 12 9 6 7 8 6 3 5 10 12 13 12 13 11 8 11 12 9 8 8 11 13 16 18 17 12 15 21 21 16 16 17 17 17 18 16 18 13 8 21 24 15 10 19 28 31 33 33 33 33 33 31 29 29 29 29 29 27 26
21 18 16 16 16 11 9 9 9 11 10 6 6 6 4 4 2 3 3 2 4 9 10 9 7 5 4 2 8 11 5 6 8 6 6 3 2 5 10 14 13 15 13 8 8 12 12 10 9 10 15 17 19 19 12 14 20 19 14 14 16 15 15 15 13 15 14 9 17 20 15 11 14 21 29 35 37 35 35 34 31 30 30 30 30 30 29 26
20 18 15 14 15 12 9 8 6 8 9 6 5 5 5 4 4 4 4 3 6 9 7 6 5 3 2 4 7 7 6 6 5 3 4 2 2 2 2 11 15 15 14 9 9 15 15 10 9 10 14 15 16 17 15 15 18 14 12 15 17 15 14 14 11 12 12 7 11 14 14 10 7 15 25 36 41 38 35 33 30 29 29 31 31 31 31 28
18 17 14 12 12 11 9 6 4 6 6 5 4 4 4 5 6 3 3 5 7 7 6 5 5 4 5 6 7 6 5 5 3 1 3 3 4 5 5 4 12 15 15 13 13 18 17 11 10 9 9 9 11 15 17 17 16 14 13 16 18 16 16 15 13 14 10 6 10 7 7 8 5 10 23 31 32 29 28 32 32 29 29 31 31 33 32 31
16 14 13 11 9 8 7 3 2 3 3 3 3 3 5 6 4 1 3 6 6 6 6 5 4 4 5 4 4 5 5 5 3 1 2 2 5 6 8 3 4 7 10 12 15 19 19 15 11 9 8 5 7 13 15 16 16 14 14 15 15 14 14 14 13 11 5 5 11 5 1 5 6 10 19 19 16 16 21 28 28 26 28 30 30 32 33 32
13 12 11 9 7 5 4 1 1 3 3 4 5 5 6 6 6 8 5 6 5 5 5 6 5 5 5 4 4 6 8 7 5 4 2 2 5 8 8 5 5 5 3 2 7 15 20 19 13 10 9 4 6 9 12 16 15 12 15 14 9 5 4 6 7 5 3 8 14 10 5 7 8 12 16 13 11 14 20 23 21 20 22 26 29 30 31 33
12 9 9 8 7 6 4 3 4 5 6 7 8 8 9 8 8 12 11 8 8 8 5 7 7 5 6 9 8 8 8 6 4 5 4 2 5 9 6 1 3 4 2 1 1 4 12 16 12 10 9 6 6 5 6 13 14 12 15 13 9 4 2 1 3 2 4 10 17 18 13 9 8 12 16 18 16 15 17 21 20 18 18 22 26 27 29 33
11 8 8 9 8 8 8 7 9 11 11 10 9 11 14 11 7 11 16 14 12 11 8 5 3 3 4 7 6 5 5 6 5 5 3 3 8 9 5 3 2 0 2 2 3 4 3 7 6 7 5 5 8 5 2 8 12 11 12 11 11 8 3 2 3 2 4 7 13 15 9 3 5 9 16 20 21 19 18 19 19 19 19 21 26 28 29 33
12 9 10 12 11 12 13 14 14 14 13 12 13 16 18 14 11 12 14 12 11 12 10 5 3 4 4 5 4 2 3 4 4 6 4 4 11 12 10 7 4 2 1 2 2 2 4 5 6 7 4 3 7 12 4 6 10 9 10 12 12 10 6 5 5 6 6 3 7 11 9 7 9 11 16 18 21 24 23 21 23 25 24 23 28 33 32 32
15 13 13 14 15 17 19 17 15 15 14 17 20 22 20 15 12 12 10 8 8 11 10 8 9 12 11 9 7 5 5 6 6 9 9 7 12 14 11 10 9 7 7 4 4 4 4 7 7 6 4 5 6 10 1 3 7 8 11 16 15 13 11 8 10 12 10 4 5 10 12 13 13 11 12 15 19 25 27 27 28 28 27 25 26 31 34 33
17 17 17 17 19 21 20 17 16 17 18 20 23 21 18 15 13 10 6 4 5 8 9 12 12 14 13 13 14 10 8 9 9 11 11 7 9 12 9 9 10 8 8 6 5 6 7 11 12 8 8 8 5 5 4 5 7 2 4 11 12 16 17 10 6 6 4 1 3 8 11 11 11 12 11 13 18 23 26 28 27 26 28 28 25 27 32 34
18 20 22 22 21 19 17 15 16 18 20 21 21 19 18 16 13 12 7 2 3 4 8 13 11 9 11 14 17 13 10 12 13 14 13 8 8 11 8 8 8 7 5 2 1 2 7 11 13 12 12 7 1 3 8 13 12 4 1 4 4 9 13 10 4 2 1 1 2 7 10 11 13 16 16 16 19 23 26 29 29 28 28 28 27 26 28 32
18 21 23 22 19 15 14 14 14 17 19 19 18 17 16 14 12 12 10 6 5 6 8 9 8 7 9 11 14 15 15 16 14 12 10 8 8 7 7 7 6 6 5 3 1 1 4 7 11 15 16 9 5 3 3 2 12 11 2 3 3 2 8 6 4 3 2 2 2 3 6 8 9 13 17 18 16 19 26 32 34 32 29 27 27 26 27 31
16 19 20 18 16 14 13 12 12 15 17 15 13 12 11 11 10 8 7 6 7 9 8 6 6 7 7 8 11 14 16 16 14 13 11 10 8 6 8 11 6 4 5 4 3 2 3 6 13 19 19 12 7 3 7 10 4 4 11 16 15 10 6 5 5 6 3 2 3 1 4 5 9 13 13 16 14 17 23 30 36 35 31 25 24 23 25 29
17 17 16 14 13 14 13 12 12 12 10 8 8 7 5 6 8 6 5 6 8 10 6 4 7 8 5 6 8 10 12 14 14 14 12 10 10 9 11 13 11 6 3 3 4 4 4 6 16 23 23 19 15 11 10 12 12 12 14 17 20 18 10 3 5 9 9 8 5 3 6 3 18 20 16 15 15 21 21 27 36 34 30 24 23 22 21 25
16 15 13 10 10 11 11 12 11 9 7 6 7 7 6 5 6 4 5 5 8 8 4 2 6 8 7 5 6 5 7 10 11 11 10 9 10 11 10 10 11 9 6 4 4 5 6 6 14 24 27 26 23 21 19 17 14 7 4 11 15 15 14 10 5 6 8 13 11 10 8 7 19 18 21 19 12 19 17 25 31 30 29 25 22 22 21 23
14 12 9 7 7 8 12 15 12 11 10 8 6 8 9 6 4 2 3 4 5 6 4 3 5 6 8 8 5 3 2 5 7 7 6 7 8 10 9 7 9 10 9 5 2 2 6 7 12 21 29 32 24 18 19 19 12 4 1 7 10 11 16 15 7 7 5 3 3 8 6 11 17 15 22 22 8 9 9 19 23 28 33 32 29 27 24 24
12 10 7 6 5 2 11 16 13 13 12 8 6 10 12 10 7 6 4 4 5 5 4 6 8 4 4 7 6 4 5 4 4 3 2 5 7 8 9 9 10 10 9 8 7 6 6 7 11 13 17 24 15 4 6 15 9 4 5 8 9 12 19 13 4 4 4 6 9 4 2 11 17 14 20 22 14 8 4 12 21 27 32 34 35 32 29 27
8 7 6 6 5 1 7 13 11 12 13 12 13 14 13 13 13 11 8 7 7 6 5 8 8 3 3 3 4 5 6 4 2 1 2 5 7 8 10 11 11 9 6 5 8 9 6 6 8 6 3 10 8 3 8 16 15 12 13 11 12 15 17 15 11 8 6 8 11 7 3 9 16 16 16 19 19 16 12 8 19 27 29 31 32 31 32 30
4 4 5 3 4 2 5 8 8 10 11 11 14 14 11 12 13 11 10 9 9 8 6 7 4 2 5 4 3 5 5 2 0 2 5 7 8 10 10 11 11 9 6 7 8 8 8 9 10 10 10 14 16 14 16 21 23 23 21 18 16 13 12 15 13 7 10 15 12 6 8 11 17 21 16 15 17 17 18 11 11 24 28 29 29 30 34 35
3 3 2 1 3 4 2 3 4 6 7 6 9 13 11 9 10 10 11 9 7 8 6 5 2 1 5 5 4 5 4 1 2 4 6 7 7 8 8 8 8 7 8 8 6 4 8 11 12 14 17 20 21 19 17 18 23 26 25 23 21 17 13 14 12 7 11 16 10 7 14 15 18 20 15 14 13 11 16 16 10 17 24 27 30 32 36 40
3 0 1 3 5 8 6 4 5 4 3 5 7 9 9 9 9 10 10 8 6 8 8 8 8 7 5 5 5 6 4 2 3 5 6 7 8 7 6 6 5 6 8 8 7 5 6 8 10 12 15 18 19 18 15 17 22 25 25 24 23 22 19 16 15 11 11 13 13 13 17 15 14 14 13 15 13 8 8 13 20 15 16 25 30 33 36 40
7 5 4 5 8 11 7 5 7 7 4 4 4 5 7 9 9 8 7 6 8 10 10 10 10 10 7 5 6 6 5 5 5 5 7 8 8 9 9 7 6 6 7 6 6 7 6 7 9 13 16 18 19 18 14 14 19 21 20 20 22 24 24 22 20 15 12 14 15 13 12 10 10 10 10 13 14 10 5 2 15 21 17 19 27 34 39 41
9 8 9 9 10 9 4 2 5 6 4 4 4 5 7 7 6 4 3 5 9 11 11 9 8 8 9 9 6 4 4 5 4 6 8 8 8 9 10 10 10 8 6 7 8 8 8 8 9 13 17 19 18 17 15 14 16 18 16 14 17 21 24 26 24 18 15 15 12 11 12 9 7 7 8 10 14 13 8 8 4 13 23 18 20 28 34 39
10 9 10 10 10 7 3 2 4 6 5 8 8 7 6 6 4 3 3 3 7 8 6 6 6 7 10 10 8 7 6 5 5 5 7 9 9 11 11 12 13 11 7 7 9 11 11 11 11 13 16 19 18 15 15 17 19 21 20 13 10 14 19 23 23 21 20 19 17 15 15 11 8 11 13 12 13 14 10 10 13 3 15 19 16 20 25 31
12 9 8 7 7 7 2 3 4 4 4 9 9 6 4 4 4 4 3 2 5 5 2 3 5 7 9 10 9 9 7 4 4 5 8 10 11 12 12 12 13 14 12 10 9 11 11 11 12 12 13 17 17 14 15 17 17 19 18 9 4 10 15 16 15 14 16 19 18 13 11 11 13 15 17 16 15 14 12 10 14 17 4 10 12 13 16 21
Wind_Direction
318 318 317 317 316 315 313 312 312 312 312 311 309 308 304 300 295 291 288 284 279 275 271 268 268 267 265 259 251 246 246 243 238 236 232 230 230 226 210 199 200 200 200 198 199 197 193 192 190 188 185 191 193 189 204 188 134 88 42 22 32 40 39 38 16 3 3 334 187 181 190 198 192 175 174 180 183 178 165 164 171 179 185 186 181 171 168 169
318 316 315 315 314 313 311 310 309 309 310 309 307 306 304 301 296 292 289 287 283 278 273 267 265 265 265 263 257 249 244 241 236 231 228 224 220 220 211 202 201 199 197 194 195 191 190 191 191 190 185 185 190 198 213 182 129 84 27 29 57 54 47 37 1 4 12 16 171 178 190 190 191 185 181 183 184 181 170 169 174 179 181 178 176 173 174 174
317 315 314 313 312 310 308 307 306 306 306 305 304 303 302 298 295 293 289 287 284 280 276 271 265 262 263 262 260 255 247 239 233 223 219 220 215 215 210 201 200 198 193 185 182 180 179 186 190 188 183 183 188 197 198 159 129 98 47 64 71 52 42 26 4 12 25 58 151 165 177 176 182 185 188 187 183 177 172 179 181 179 178 177 176 175 178 176
314 313 312 311 310 307 305 303 302 302 302 301 300 298 297 294 293 292 290 286 283 281 278 274 268 263 260 260 259 256 251 241 232 220 215 217 212 210 209 201 194 191 191 185 179 176 178 182 182 182 183 182 185 189 182 157 137 143 110 68 47 25 24 9 10 18 29 60 139 161 177 175 174 180 188 190 185 178 179 191 189 179 177 177 178 178 181 179
310 309 309 309 308 306 304 300 297 297 297 297 296 295 292 290 289 288 289 287 283 281 278 275 271 265 259 259 257 253 248 236 232 224 215 214 209 205 204 200 193 189 192 188 182 182 184 182 177 177 180 181 184 183 171 147 139 170 103 35 6 357 344 325 0 18 29 50 136 164 178 172 174 181 188 193 191 188 188 195 189 181 180 179 179 180 182 183
307 306 305 306 305 304 302 298 295 292 291 292 292 291 287 285 284 284 285 285 284 281 278 276 272 267 261 256 254 251 237 219 225 225 214 211 205 198 196 195 194 196 196 190 188 189 186 187 187 179 176 182 182 170 158 147 167 244 306 340 328 323 289 290 335 18 45 41 93 155 170 168 178 185 189 192 190 191 192 191 183 179 184 185 183 184 185 187
305 304 303 303 303 301 299 296 294 291 290 288 286 286 283 281 280 280 280 281 282 280 277 275 272 268 262 254 252 249 233 209 203 208 213 209 201 195 192 191 195 201 201 195 195 193 185 191 196 182 174 182 176 153 151 161 203 249 276 293 296 301 276 265 294 344 47 23 24 127 162 163 177 189 194 189 185 188 191 187 176 174 183 188 189 189 191 192
305 303 302 302 302 300 297 293 290 289 290 288 286 282 278 277 276 276 276 276 278 278 275 271 270 267 261 256 249 246 239 218 201 197 197 195 193 197 194 190 196 196 196 198 197 197 190 191 197 185 173 172 165 147 148 167 203 231 262 296 291 291 271 248 258 285 336 1 22 111 165 165 174 191 198 190 187 188 188 185 175 174 179 183 191 193 194 196
306 304 302 302 302 301 299 293 288 287 288 289 288 283 277 274 272 273 272 272 273 274 274 269 266 264 260 253 246 247 246 234 214 204 197 190 186 191 197 193 194 190 189 192 191 198 196 192 195 184 158 147 158 152 153 196 212 225 279 313 301 291 262 238 249 265 271 328 3 41 176 173 172 184 188 186 188 184 187 189 178 177 177 181 190 195 198 199
306 305 304 303 302 301 299 295 289 286 287 288 289 287 281 274 270 269 267 268 269 270 272 268 261 256 253 246 244 248 246 242 227 210 198 203 202 191 193 193 192 187 184 188 192 198 193 183 183 172 156 157 182 182 184 225 237 248 279 282 283 291 252 234 247 254 247 272 297 344 154 163 166 179 181 178 183 183 190 190 177 177 178 181 190 195 199 201
307 307 306 304 303 300 297 293 288 285 286 286 287 287 283 277 272 267 264 264 264 267 268 265 258 248 243 238 236 240 245 244 233 218 186 196 216 203 192 192 190 186 183 187 191 191 174 164 166 168 176 184 199 217 213 231 258 262 268 259 255 283 236 228 241 247 247 258 236 152 141 150 157 175 179 178 184 188 193 188 176 176 178 182 191 197 201 201
309 308 308 307 303 299 294 289 285 282 283 284 284 283 280 277 272 267 264 261 261 265 264 261 254 240 231 229 229 232 245 246 238 238 198 185 211 207 199 195 189 186 184 184 182 175 161 160 167 172 175 178 188 221 223 222 247 249 250 245 239 255 231 231 245 249 247 250 232 166 155 155 155 171 181 182 187 192 193 190 179 174 179 183 190 198 202 202
312 311 311 310 304 298 292 287 282 278 277 279 280 278 276 272 268 265 262 260 262 263 261 255 244 235 224 221 225 221 235 243 238 249 241 210 205 202 198 194 189 185 184 179 173 166 158 164 175 177 174 181 193 214 213 208 229 234 231 230 220 223 233 234 239 242 241 243 249 219 175 171 165 173 186 185 189 194 190 188 182 176 182 187 189 196 200 203
316 317 316 313 306 298 293 289 284 278 273 272 273 270 269 266 262 260 259 258 261 262 261 250 236 230 214 208 219 217 223 236 234 239 244 231 206 200 191 188 187 182 180 177 169 163 161 171 182 183 185 196 210 224 215 203 212 220 219 217 212 218 228 227 230 234 233 232 234 227 211 206 188 178 188 186 191 199 192 186 185 185 188 191 193 195 198 201
324 323 321 317 310 303 299 295 289 283 276 271 268 263 260 260 256 253 252 254 257 260 257 245 230 216 205 206 213 217 213 211 214 224 233 227 205 194 182 179 183 178 175 177 171 166 169 178 187 190 191 201 217 227 223 211 204 213 219 210 213 224 219 217 231 236 234 228 215 214 224 225 208 185 182 182 186 198 198 190 188 191 192 194 197 196 197 199
332 330 326 322 317 312 308 302 295 289 282 277 270 259 253 252 250 246 245 249 251 251 243 228 209 185 171 184 194 215 209 161 145 182 207 213 200 186 173 170 181 179 171 175 174 170 176 185 192 193 191 199 213 218 222 220 210 211 223 210 211 222 212 209 227 239 243 240 222 217 221 217 212 194 183 180 181 191 199 196 191 193 193 195 200 200 199 198
337 335 332 329 325 320 315 309 302 294 285 281 270 256 252 248 248 246 242 245 243 240 224 189 168 159 142 136 157 202 159 115 85 122 174 193 191 185 175 165 173 179 170 172 176 175 183 191 195 196 193 197 206 210 218 223 215 207 211 211 206 212 213 213 223 236 243 243 234 224 217 220 232 212 192 186 181 187 198 201 200 197 195 197 201 202 200 198
338 337 335 333 330 325 321 314 306 298 285 278 268 258 253 249 250 245 241 242 235 230 213 185 162 151 140 115 89 70 131 102 28 13 156 181 184 189 186 170 165 174 171 172 179 181 186 193 197 200 202 202 200 203 211 214 211 204 201 209 208 210 216 220 226 234 237 238 237 229 218 219 231 216 196 192 187 189 196 202 207 203 203 203 201 203 201 200
335 335 334 333 332 328 325 318 311 303 287 273 264 256 248 246 245 240 240 236 221 212 200 186 170 155 145 124 95 225 171 127 121 142 136 167 180 186 188 178 168 175 177 176 182 184 187 193 197 202 207 207 202 202 208 207 207 209 213 225 237 245 240 239 247 253 245 234 229 230 225 217 215 211 199 196 193 191 193 198 206 206 208 211 206 206 205 202
333 332 331 331 330 329 327 322 315 309 297 281 265 249 239 238 241 239 235 229 218 211 203 201 191 174 160 143 138 222 215 205 164 144 132 144 170 182 185 181 173 180 185 183 185 187 190 195 200 207 210 210 208 207 208 208 207 212 225 241 254 263 260 259 267 276 260 234 224 228 226 215 210 212 208 203 197 193 195 197 201 205 210 213 208 207 207 206
332 330 329 328 327 328 326 321 317 313 311 300 279 254 235 226 239 243 232 226 221 216 218 233 217 195 181 160 160 202 222 219 168 138 122 123 161 180 185 185 178 182 184 179 183 189 197 204 205 210 212 213 214 212 213 217 219 221 229 244 256 258 261 263 264 281 266 230 222 221 218 213 211 214 212 209 205 202 204 201 200 207 210 211 207 205 206 206
331 329 327 326 324 325 323 320 318 314 312 308 294 263 235 217 236 247 239 224 212 214 222 235 240 221 200 177 176 195 202 186 166 144 108 107 166 180 178 185 184 181 179 173 179 193 206 215 212 211 213 215 215 209 212 222 231 237 236 249 258 254 265 265 256 294 253 216 215 213 210 212 213 214 213 216 219 217 217 211 206 212 212 209 206 204 202 203
330 326 325 324 321 322 320 316 314 309 306 302 293 261 228 207 223 238 252 233 204 216 224 227 243 230 200 197 194 200 188 169 173 164 123 117 171 165 160 179 184 177 183 183 185 199 215 218 208 208 213 215 214 206 206 221 233 243 242 250 256 252 272 266 254 332 226 205 204 203 204 208 207 209 213 219 229 223 218 216 215 220 219 215 210 206 204 203
328 323 322 321 319 318 315 312 305 295 293 297 300 279 224 201 216 226 252 253 212 221 225 220 227 205 185 192 167 173 178 168 175 166 154 158 180 167 157 171 182 176 185 192 191 205 218 203 178 201 222 218 216 208 206 220 230 239 244 248 253 253 271 271 270 304 272 232 209 198 198 204 202 205 208 210 218 219 217 214 212 217 221 222 219 214 209 207
325 322 319 317 317 314 309 307 291 279 283 294 311 316 244 199 218 217 257 277 220 209 193 182 198 181 169 169 158 166 165 152 108 151 168 213 196 191 182 175 192 194 193 202 204 219 221 198 189 221 234 222 214 209 208 219 231 240 243 243 248 255 268 279 286 293 292 272 206 199 192 200 205 207 208 209 213 213 214 215 213 214 213 215 217 215 211 208
325 324 319 314 315 313 304 299 280 276 283 291 317 342 341 292 220 195 310 338 92 148 153 150 163 164 159 181 194 181 162 147 140 158 183 236 197 196 193 185 197 199 198 218 228 238 234 217 219 226 234 231 220 215 209 215 234 245 238 231 240 253 267 279 284 283 283 150 182 195 187 185 203 208 210 213 216 213 213 216 216 215 212 211 211 212 212 207
326 326 323 315 314 315 300 287 272 275 282 288 308 321 309 274 211 132 72 34 91 139 144 135 119 124 137 178 192 172 164 166 155 162 190 223 208 207 203 198 199 195 198 220 227 229 229 226 227 223 231 235 228 224 210 206 230 241 224 216 239 255 269 282 280 281 278 177 171 186 189 187 201 215 220 217 215 215 216 217 218 218 215 212 211 211 211 208
323 323 324 316 313 317 301 281 271 275 282 291 292 280 255 235 192 127 116 56 102 139 143 134 114 95 104 148 173 157 136 155 160 172 185 190 272 239 219 208 200 202 207 232 229 199 196 216 226 227 234 239 238 238 226 206 220 231 215 219 248 257 271 290 290 292 288 226 186 193 203 202 210 232 228 214 213 217 220 221 219 220 217 213 214 212 211 210
320 318 321 317 312 314 302 287 273 269 272 276 271 249 231 207 155 121 105 100 124 132 136 135 105 51 76 127 164 150 91 111 142 159 152 118 30 40 228 204 203 213 216 245 240 198 198 221 219 219 232 241 245 245 240 223 221 226 223 236 249 249 264 282 288 299 300 257 218 211 208 205 225 245 222 207 212 220 226 228 224 221 218 216 216 214 212 211
321 319 322 320 313 310 305 294 262 252 254 245 242 230 207 164 142 132 75 97 126 124 122 133 111 76 77 93 129 128 94 109 109 81 123 69 40 43 29 182 206 226 228 241 236 208 210 227 224 221 225 233 236 232 233 232 232 236 236 245 248 248 261 269 273 290 303 270 240 222 203 217 229 234 218 210 214 220 226 229 227 224 220 217 217 215 213 212
329 327 328 329 324 316 310 303 236 232 226 209 208 187 170 142 117 80 87 105 113 108 112 117 113 97 68 65 110 102 101 132 126 117 152 9 2 3 358 347 231 246 242 241 236 222 216 219 232 228 202 206 229 221 223 227 235 240 237 244 250 250 256 263 271 280 290 272 255 231 169 244 227 218 223 222 225 233 235 232 230 227 221 216 215 215 214 213
341 338 340 345 348 340 332 12 147 183 176 166 155 144 145 125 63 29 58 127 105 81 110 106 103 115 88 84 129 108 105 119 119 110 109 353 16 38 23 349 294 281 298 232 230 232 226 229 241 225 203 227 243 225 222 223 224 224 223 230 241 247 254 257 271 267 235 266 265 259 287 280 255 239 237 240 243 243 244 242 242 244 234 222 215 214 214 213
352 354 2 7 15 24 32 65 95 123 129 126 130 117 100 95 61 34 45 80 70 54 98 115 108 124 102 93 111 117 113 113 106 95 90 76 81 86 90 60 288 286 299 90 38 256 236 238 240 217 209 223 227 235 245 227 219 217 222 225 219 194 92 211 257 292 262 273 271 270 284 283 260 253 245 241 240 243 246 242 243 254 253 238 225 217 215 214
16 29 38 37 44 50 56 76 94 108 114 115 118 97 78 65 47 48 56 69 74 63 78 109 108 126 100 84 100 125 124 119 96 71 65 86 84 81 83 108 119 267 210 190 24 15 252 235 197 167 168 193 208 216 261 231 220 218 223 225 219 201 156 190 207 168 216 266 277 275 280 243 229 251 249 245 242 243 247 241 242 253 259 251 235 222 217 216
37 51 53 53 58 64 76 87 97 107 107 101 90 77 71 55 33 40 48 65 79 62 63 92 78 68 85 97 115 118 95 114 109 80 74 84 82 69 46 52 74 58 137 178 360 349 268 235 155 132 84 49 199 201 218 245 223 220 225 231 234 217 204 231 241 240 244 273 289 284 288 271 266 264 254 259 258 248 246 245 248 254 256 252 238 226 221 218
47 54 56 66 77 81 85 89 96 100 93 84 75 66 62 52 35 27 24 44 56 37 49 85 71 64 77 92 92 78 75 101 117 95 92 103 94 78 54 52 55 53 71 61 9 2 296 242 196 179 161 86 148 187 234 319 217 209 218 227 237 230 227 251 261 260 263 278 282 279 281 276 279 272 238 237 251 248 246 245 244 247 248 245 238 230 225 221
61 67 70 85 99 94 84 83 90 87 79 74 70 64 56 49 45 36 10 1 29 28 54 73 64 62 72 71 66 74 97 97 84 78 91 118 90 66 60 70 63 60 76 63 28 16 319 263 241 226 183 134 115 179 200 219 206 174 219 224 229 225 225 236 257 261 248 221 249 252 263 273 276 271 247 233 237 237 239 242 239 236 235 235 232 227 224 223
81 82 82 91 101 92 75 75 81 76 77 81 76 65 51 47 55 58 50 41 54 63 73 69 61 64 76 70 60 63 85 82 71 73 87 105 77 51 44 61 61 54 67 71 81 24 314 279 258 238 205 185 324 206 195 202 196 157 348 239 213 223 232 236 240 240 174 167 237 249 264 271 264 268 281 282 262 245 241 242 240 235 231 229 225 219 219 222
92 88 82 82 85 78 66 69 70 70 80 85 81 73 63 57 63 68 72 82 90 95 83 68 68 75 79 76 64 59 68 76 78 80 85 84 72 50 22 30 49 44 21 324 313 355 308 299 271 239 222 242 324 34 71 176 190 191 240 7 47 282 255 250 242 214 180 186 213 268 277 265 276 295 305 305 285 263 256 247 242 241 234 227 225 222 217 218
99 91 77 70 70 71 72 73 68 69 77 75 69 74 75 68 62 62 75 83 84 88 75 58 82 90 81 82 74 63 65 75 77 73 76 74 65 47 24 20 14 19 10 332 346 340 287 298 278 248 235 258 306 350 1 356 326 330 12 24 25 2 295 262 254 231 212 207 172 119 259 275 22 15 338 318 294 279 271 249 238 240 237 228 225 224 220 216
100 89 70 62 66 70 76 80 72 68 73 77 67 61 61 53 39 43 83 91 86 87 77 62 79 78 77 98 88 68 67 79 74 62 63 64 56 47 33 20 5 357 343 306 335 344 318 296 280 267 259 266 280 281 292 315 326 351 23 30 27 23 15 347 244 228 223 222 198 171 233 347 44 44 24 355 305 288 276 245 235 236 236 231 219 215 214 211
95 83 70 67 69 73 85 89 78 65 63 76 70 50 32 12 3 40 105 119 99 93 102 96 71 61 63 89 102 86 75 76 71 60 52 50 56 53 40 26 12 2 353 350 25 19 351 307 280 277 269 264 275 289 288 288 301 311 50 39 36 42 26 360 305 267 237 217 215 217 223 42 49 46 37 32 333 299 269 233 231 231 230 228 215 208 205 202
92 84 80 69 54 76 104 101 91 87 86 87 73 42 28 13 352 57 133 160 109 93 110 82 55 55 55 57 81 137 147 80 79 88 64 33 38 38 18 4 3 352 341 340 351 351 341 325 302 289 274 265 273 298 288 271 278 278 152 31 32 32 7 346 307 309 310 231 246 226 205 48 50 47 38 43 28 312 253 217 220 220 218 218 213 208 198 192
97 90 85 69 31 82 112 99 98 108 103 93 66 37 36 47 46 42 70 116 97 87 101 67 50 62 60 43 57 105 153 142 120 134 81 358 356 360 337 326 343 343 334 329 314 310 324 324 323 319 294 280 281 345 291 263 268 341 351 355 357 354 356 353 325 332 5 21 358 299 199 33 35 41 33 37 53 62 124 191 205 212 214 214 213 209 198 189
113 100 85 69 26 328 118 98 107 121 105 87 68 46 38 48 46 39 53 86 83 69 85 78 65 91 104 50 57 91 115 139 155 205 315 336 334 332 320 315 326 333 323 300 296 304 309 300 312 338 320 283 284 19 330 303 300 309 316 328 333 339 356 3 355 355 3 339 328 331 11 17 20 28 25 21 32 53 73 146 194 206 212 214 212 208 202 198
159 132 107 82 17 13 128 117 129 137 122 103 79 60 47 47 50 53 63 76 66 43 62 91 89 122 114 99 104 92 82 84 91 302 313 326 334 339 335 324 322 324 307 283 283 284 273 268 280 281 266 273 286 303 314 311 303 297 299 306 311 320 348 358 348 354 353 325 301 331 5 353 3 17 21 5 9 31 44 63 176 203 212 212 210 207 207 209
233 206 135 79 12 30 80 117 138 155 164 149 96 77 67 56 59 59 52 53 40 15 27 67 55 48 89 85 80 82 77 52 333 325 322 324 330 338 344 343 339 332 318 317 323 285 256 259 262 263 267 274 286 300 306 299 291 291 295 298 299 302 316 333 325 319 340 324 291 320 354 356 3 11 11 352 348 10 25 46 116 187 205 205 206 207 209 214
7 246 31 12 42 55 49 40 57 80 151 161 125 98 77 72 79 64 44 32 10 5 21 33 25 23 38 56 62 60 55 29 351 335 328 325 321 320 329 346 359 349 335 334 334 301 265 270 268 261 265 267 273 286 296 289 282 282 287 291 292 293 296 301 299 297 317 312 294 317 348 6 15 14 9 355 351 350 360 52 86 114 174 196 204 206 208 213
31 53 54 49 70 75 65 41 43 49 77 126 131 106 76 80 95 85 64 50 27 27 39 40 33 29 21 30 57 49 25 4 352 341 335 332 328 325 328 335 339 343 347 341 327 305 281 276 272 266 268 268 269 278 285 287 288 288 289 290 288 287 286 286 289 293 299 293 290 309 336 358 7 10 13 358 348 340 308 59 71 76 108 167 192 201 208 212
49 69 80 90 98 94 81 37 30 21 34 62 72 93 83 72 78 70 55 70 60 50 50 49 43 27 8 2 12 12 343 319 320 335 334 327 324 322 322 322 317 319 336 341 328 310 298 293 280 276 280 275 272 278 278 280 289 289 287 292 292 286 282 281 285 290 291 289 286 297 311 319 327 336 343 339 330 322 290 260 306 58 81 111 160 180 196 207
60 72 84 93 97 94 77 41 5 345 19 61 63 80 73 37 25 9 350 75 85 67 50 48 40 5 350 356 2 358 345 315 297 326 328 316 313 311 301 295 297 298 305 321 316 305 304 302 290 289 293 284 280 284 279 278 280 274 269 276 295 301 295 289 288 290 289 288 285 291 301 298 290 299 303 306 313 312 303 275 257 242 79 87 116 142 166 188
54 59 68 66 72 81 58 327 328 336 54 82 84 100 89 20 19 40 42 92 92 71 50 34 26 359 351 5 6 356 355 325 288 312 318 307 306 304 290 276 278 283 281 276 282 290 296 294 289 291 291 284 285 290 290 294 289 268 259 259 301 331 326 309 294 287 284 283 283 291 301 287 278 284 287 292 303 304 304 291 255 246 247 72 83 104 135 166
Height
3152 3151 3150 3149 3149 3148 3147 3146 3146 3145 3144 3144 3143 3143 3142 3142 3141 3141 3140 3140 3140 3140 3140 3141 3141 3141 3141 3142 3142 3142 3143 3144 3144 3145 3146 3146 3147 3148 3149 3149 3150 3151 3152 3154 3155 3157 3158 3160 3161 3162 3164 3165 3167 3168 3168 3169 3169 3169 3170 3171 3171 3171 3171 3170 3169 3169 3169 3169 3170 3170 3171 3172 3174 3175 3177 3177 3178 3180 3181 3181 3183 3185 3186 3187 3187 3186 3186 3187
3151 3150 3148 3148 3147 3146 3146 3145 3144 3144 3143 3143 3142 3141 3141 3140 3140 3139 3139 3139 3138 3138 3138 3139 3139 3139 3140 3140 3141 3141 3142 3142 3143 3144 3145 3145 3146 3146 3147 3148 3149 3150 3151 3153 3155 3156 3158 3159 3160 3161 3163 3165 3167 3168 3168 3169 3169 3169 3170 3170 3171 3171 3171 3170 3169 3169 3169 3168 3169 3171 3171 3172 3174 3175 3177 3178 3179 3181 3182 3181 3182 3184 3185 3186 3186 3186 3186 3187
3151 3149 3148 3147 3146 3145 3144 3143 3143 3142 3142 3141 3141 3140 3140 3139 3138 3138 3137 3137 3137 3137 3137 3137 3137 3138 3138 3139 3139 3140 3140 3141 3141 3142 3143 3143 3144 3145 3146 3147 3148 3149 3151 3152 3153 3155 3156 3158 3159 3161 3163 3164 3166 3167 3167 3168 3168 3169 3169 3170 3170 3171 3171 3170 3169 3170 3169 3168 3169 3171 3172 3173 3174 3175 3177 3179 3180 3181 3181 3181 3181 3182 3183 3184 3185 3186 3186 3187
3150 3148 3147 3146 3145 3144 3142 3142 3141 3141 3140 3140 3139 3139 3138 3137 3137 3136 3136 3136 3135 3135 3135 3135 3135 3136 3137 3137 3138 3138 3139 3140 3140 3141 3141 3142 3143 3144 3145 3146 3147 3149 3150 3151 3152 3153 3154 3155 3157 3160 3162 3163 3165 3165 3165 3167 3168 3169 3169 3169 3170 3171 3171 3170 3170 3170 3170 3170 3170 3171 3172 3173 3174 3175 3177 3178 3178 3178 3178 3180 3181 3181 3182 3183 3184 3185 3186 3187
3148 3147 3146 3145 3144 3143 3142 3140 3139 3139 3138 3138 3137 3137 3136 3136 3135 3135 3134 3134 3134 3134 3133 3133 3134 3134 3135 3136 3136 3137 3138 3138 3138 3139 3140 3141 3142 3143 3144 3145 3146 3147 3148 3150 3151 3151 3152 3153 3155 3157 3160 3162 3163 3163 3164 3166 3167 3167 3168 3169 3169 3171 3171 3170 3171 3171 3171 3171 3170 3170 3171 3172 3173 3174 3175 3176 3176 3176 3177 3179 3181 3182 3183 3184 3184 3185 3186 3187
3147 3146 3145 3143 3143 3142 3141 3140 3138 3137 3136 3136 3135 3135 3134 3134 3133 3133 3133 3132 3132 3132 3132 3132 3132 3132 3133 3134 3134 3135 3136 3137 3137 3138 3139 3139 3141 3142 3143 3144 3145 3146 3147 3149 3150 3150 3152 3153 3154 3154 3157 3160 3161 3162 3163 3165 3166 3166 3166 3168 3169 3170 3171 3171 3172 3172 3171 3171 3170 3170 3171 3171 3172 3173 3175 3175 3177 3178 3177 3178 3181 3183 3185 3186 3186 3186 3186 3187
3146 3145 3143 3142 3141 3140 3139 3138 3137 3136 3135 3134 3134 3133 3133 3132 3132 3132 3131 3131 3131 3131 3131 3130 3130 3131 3132 3132 3133 3133 3134 3136 3136 3137 3137 3138 3139 3140 3141 3143 3144 3145 3147 3148 3148 3150 3151 3152 3154 3155 3156 3158 3160 3161 3162 3164 3166 3165 3165 3167 3168 3170 3172 3171 3172 3172 3171 3171 3171 3171 3171 3171 3173 3173 3174 3175 3177 3178 3177 3179 3180 3182 3184 3187 3187 3187 3187 3188
3144 3143 3142 3141 3140 3139 3137 3136 3136 3135 3134 3133 3132 3132 3131 3130 3130 3130 3130 3130 3129 3129 3129 3129 3129 3129 3130 3131 3131 3131 3132 3134 3136 3136 3137 3137 3138 3139 3140 3141 3143 3144 3146 3147 3148 3150 3150 3152 3154 3155 3156 3158 3160 3162 3163 3164 3166 3166 3165 3167 3168 3170 3171 3171 3171 3172 3172 3172 3172 3172 3172 3172 3173 3173 3173 3174 3176 3176 3176 3178 3179 3180 3183 3186 3187 3187 3187 3188
3141 3141 3140 3139 3138 3137 3136 3135 3134 3133 3133 3132 3131 3130 3129 3128 3128 3128 3128 3128 3128 3127 3127 3128 3128 3128 3129 3129 3130 3130 3130 3132 3134 3136 3136 3137 3138 3138 3139 3141 3142 3143 3145 3146 3147 3148 3149 3151 3154 3156 3157 3158 3160 3162 3163 3164 3165 3165 3166 3168 3169 3170 3170 3169 3170 3171 3172 3173 3172 3172 3172 3172 3173 3173 3173 3174 3175 3175 3175 3176 3178 3180 3182 3184 3187 3187 3187 3188
3139 3138 3138 3137 3136 3135 3134 3133 3132 3132 3131 3131 3130 3129 3128 3127 3126 3126 3126 3126 3126 3126 3126 3126 3126 3127 3127 3128 3128 3128 3129 3131 3133 3134 3135 3136 3137 3138 3139 3140 3141 3142 3143 3144 3145 3147 3149 3152 3154 3156 3156 3157 3159 3161 3162 3163 3164 3165 3166 3168 3169 3170 3168 3167 3169 3171 3172 3173 3172 3173 3172 3171 3172 3172 3172 3173 3174 3175 3175 3177 3179 3181 3182 3184 3186 3187 3187 3188
3137 3136 3136 3135 3134 3133 3131 3131 3130 3130 3129 3129 3128 3128 3127 3126 3125 3124 3124 3124 3124 3124 3124 3124 3125 3125 3126 3127 3127 3127 3127 3129 3131 3132 3134 3134 3135 3136 3138 3139 3140 3141 3142 3143 3145 3147 3150 3152 3154 3155 3155 3156 3159 3160 3161 3162 3163 3164 3165 3166 3168 3168 3166 3166 3168 3169 3171 3172 3172 3172 3172 3171 3172 3171 3171 3172 3174 3175 3176 3177 3179 3180 3181 3183 3185 3186 3187 3188
3135 3134 3134 3133 3132 3131 3129 3128 3128 3128 3128 3127 3126 3126 3125 3125 3124 3123 3123 3123 3122 3123 3123 3123 3124 3124 3125 3126 3126 3127 3126 3128 3129 3129 3132 3133 3133 3135 3137 3138 3139 3140 3141 3143 3145 3147 3150 3152 3153 3154 3155 3155 3157 3159 3160 3161 3161 3162 3164 3165 3167 3167 3165 3166 3167 3168 3170 3171 3170 3171 3171 3171 3171 3171 3171 3172 3173 3174 3176 3177 3178 3180 3181 3183 3184 3185 3187 3188
3134 3133 3132 3131 3130 3128 3127 3126 3126 3126 3125 3125 3125 3124 3123 3123 3123 3122 3122 3121 3121 3121 3121 3122 3122 3123 3124 3125 3125 3125 3125 3126 3127 3128 3129 3131 3132 3133 3135 3136 3138 3139 3141 3143 3145 3147 3149 3151 3152 3154 3155 3154 3154 3156 3157 3159 3159 3161 3162 3163 3164 3166 3165 3166 3167 3167 3168 3169 3169 3171 3171 3171 3171 3171 3171 3171 3172 3173 3175 3176 3177 3179 3181 3182 3184 3185 3186 3187
3132 3131 3130 3129 3127 3126 3125 3124 3124 3124 3123 3123 3123 3122 3122 3121 3121 3121 3121 3120 3120 3119 3120 3120 3121 3122 3123 3124 3124 3124 3125 3125 3126 3127 3128 3130 3131 3132 3133 3135 3137 3138 3140 3142 3144 3146 3149 3150 3152 3152 3153 3153 3154 3154 3155 3157 3158 3159 3160 3161 3162 3164 3164 3165 3166 3166 3167 3169 3170 3171 3171 3171 3171 3171 3171 3171 3172 3173 3174 3176 3177 3178 3180 3181 3183 3184 3185 3186
3131 3129 3128 3127 3125 3124 3123 3122 3122 3122 3121 3121 3121 3120 3120 3119 3119 3119 3119 3119 3119 3118 3118 3119 3120 3121 3122 3123 3123 3123 3124 3124 3125 3126 3127 3128 3130 3131 3132 3134 3136 3137 3139 3141 3143 3145 3147 3148 3149 3150 3151 3152 3153 3154 3155 3155 3156 3158 3159 3159 3160 3162 3163 3164 3164 3164 3165 3168 3170 3170 3170 3170 3170 3170 3170 3170 3171 3172 3174 3175 3177 3177 3179 3180 3181 3183 3184 3186
3129 3128 3126 3125 3123 3122 3121 3120 3120 3120 3119 3119 3119 3118 3118 3117 3117 3117 3118 3118 3117 3117 3117 3118 3119 3120 3121 3122 3122 3122 3123 3123 3124 3125 3126 3127 3128 3129 3130 3132 3135 3136 3138 3140 3142 3144 3146 3147 3147 3148 3149 3151 3152 3153 3154 3154 3155 3156 3157 3158 3159 3160 3162 3163 3163 3163 3164 3167 3168 3168 3169 3168 3169 3169 3170 3170 3170 3172 3173 3174 3176 3177 3178 3179 3180 3181 3183 3184
3128 3126 3125 3124 3122 3121 3120 3119 3118 3118 3117 3117 3117 3116 3116 3116 3116 3116 3116 3116 3116 3116 3116 3117 3117 3119 3120 3120 3121 3122 3122 3122 3123 3124 3125 3125 3127 3128 3129 3131 3133 3135 3136 3139 3141 3143 3145 3145 3146 3147 3148 3149 3151 3152 3153 3153 3153 3155 3156 3156 3157 3159 3161 3161 3162 3162 3163 3165 3166 3167 3167 3167 3168 3168 3169 3169 3170 3171 3172 3172 3174 3176 3177 3178 3179 3180 3181 3183
3127 3125 3124 3123 3121 3120 3119 3117 3117 3116 3115 3115 3115 3115 3115 3115 3115 3115 3115 3115 3115 3115 3116 3116 3116 3117 3119 3119 3120 3121 3122 3122 3123 3124 3124 3125 3126 3127 3128 3129 3131 3134 3135 3137 3140 3142 3143 3144 3145 3147 3147 3148 3149 3150 3150 3151 3152 3154 3155 3155 3156 3157 3158 3159 3161 3162 3162 3163 3164 3165 3165 3166 3167 3167 3167 3168 3169 3169 3170 3171 3173 3174 3175 3176 3178 3179 3180 3182
3125 3124 3123 3122 3120 3119 3118 3116 3115 3114 3114 3113 3113 3113 3113 3113 3113 3113 3113 3113 3114 3114 3115 3115 3115 3115 3116 3117 3119 3120 3121 3122 3123 3123 3124 3124 3125 3126 3127 3129 3130 3132 3134 3135 3138 3140 3141 3143 3144 3145 3145 3145 3146 3147 3148 3151 3152 3154 3154 3155 3155 3156 3156 3157 3160 3162 3161 3161 3162 3162 3161 3163 3165 3165 3165 3166 3166 3167 3168 3169 3171 3172 3174 3175 3176 3177 3179 3180
3124 3123 3122 3120 3119 3118 3116 3115 3114 3113 3112 3112 3111 3111 3111 3111 3111 3111 3111 3112 3112 3113 3113 3114 3114 3114 3115 3115 3117 3119 3120 3121 3122 3123 3123 3123 3124 3126 3127 3128 3129 3131 3133 3134 3137 3139 3140 3141 3142 3142 3143 3144 3146 3148 3149 3151 3152 3153 3153 3154 3154 3153 3153 3154 3158 3161 3160 3159 3158 3158 3159 3160 3162 3162 3163 3164 3165 3166 3166 3167 3168 3169 3171 3173 3174 3176 3177 3179
3123 3122 3120 3119 3118 3116 3115 3114 3113 3112 3111 3111 3110 3110 3109 3109 3109 3109 3109 3110 3110 3111 3112 3113 3114 3114 3115 3115 3115 3117 3120 3121 3121 3122 3122 3123 3124 3125 3126 3127 3128 3130 3132 3134 3137 3138 3139 3139 3139 3141 3143 3145 3146 3148 3150 3151 3151 3152 3153 3153 3152 3151 3150 3151 3155 3157 3157 3156 3155 3155 3157 3157 3159 3160 3162 3162 3163 3163 3163 3165 3166 3167 3169 3171 3173 3174 3176 3178
3121 3120 3119 3117 3116 3115 3114 3112 3111 3111 3110 3109 3109 3108 3108 3108 3108 3108 3108 3107 3108 3110 3111 3112 3112 3113 3114 3114 3114 3117 3119 3120 3121 3121 3121 3122 3123 3125 3126 3127 3128 3129 3131 3133 3135 3137 3137 3137 3138 3141 3143 3144 3146 3147 3149 3150 3151 3151 3152 3153 3151 3149 3149 3150 3153 3153 3152 3153 3152 3152 3153 3154 3157 3159 3160 3161 3161 3162 3162 3164 3165 3166 3167 3169 3171 3173 3174 3176
3120 3118 3117 3116 3115 3114 3113 3111 3110 3109 3108 3108 3107 3107 3107 3107 3107 3107 3106 3106 3107 3108 3109 3111 3111 3112 3113 3113 3114 3116 3117 3119 3120 3120 3121 3122 3123 3124 3125 3126 3128 3129 3130 3131 3133 3134 3135 3136 3138 3140 3142 3143 3144 3145 3147 3148 3149 3149 3150 3151 3148 3147 3148 3148 3150 3153 3153 3153 3152 3153 3155 3156 3158 3160 3159 3160 3161 3162 3163 3164 3165 3166 3166 3168 3170 3171 3173 3174
3119 3117 3115 3114 3113 3112 3111 3110 3109 3108 3107 3106 3106 3106 3106 3106 3106 3106 3106 3106 3106 3107 3108 3109 3110 3111 3112 3113 3114 3115 3116 3118 3119 3119 3120 3122 3123 3124 3125 3126 3128 3129 3130 3131 3132 3133 3134 3135 3137 3139 3141 3142 3143 3144 3145 3146 3147 3147 3147 3148 3146 3146 3147 3147 3149 3152 3154 3155 3153 3155 3158 3158 3158 3158 3157 3159 3161 3161 3162 3162 3163 3164 3166 3168 3169 3170 3171 3173
3117 3115 3113 3112 3112 3111 3109 3109 3108 3107 3107 3105 3105 3106 3106 3105 3105 3105 3105 3105 3106 3106 3107 3108 3109 3110 3111 3112 3113 3114 3116 3117 3118 3119 3120 3122 3123 3123 3124 3126 3127 3128 3129 3131 3132 3133 3134 3135 3136 3138 3139 3140 3141 3142 3143 3144 3145 3145 3145 3145 3145 3144 3145 3146 3148 3151 3151 3152 3151 3152 3155 3156 3156 3155 3156 3157 3158 3158 3160 3160 3161 3162 3164 3166 3167 3168 3169 3172
3115 3113 3111 3110 3110 3109 3108 3107 3106 3106 3106 3105 3105 3105 3105 3105 3104 3104 3105 3105 3105 3105 3107 3108 3109 3110 3111 3112 3113 3114 3115 3117 3117 3118 3120 3121 3122 3123 3124 3125 3126 3127 3129 3130 3131 3132 3132 3134 3135 3136 3138 3139 3140 3140 3141 3143 3144 3143 3142 3143 3144 3144 3144 3145 3147 3149 3148 3148 3149 3151 3152 3153 3155 3155 3155 3156 3156 3157 3158 3158 3159 3161 3162 3162 3163 3165 3167 3169
3112 3111 3109 3107 3107 3107 3106 3105 3105 3104 3104 3105 3105 3105 3104 3104 3103 3104 3105 3105 3105 3106 3107 3108 3109 3110 3111 3112 3112 3114 3115 3116 3117 3118 3119 3121 3122 3122 3123 3124 3125 3126 3127 3128 3129 3129 3131 3132 3134 3135 3137 3138 3138 3139 3139 3141 3142 3141 3140 3142 3143 3143 3143 3144 3145 3146 3147 3147 3149 3152 3152 3152 3153 3153 3153 3154 3156 3157 3157 3156 3157 3158 3159 3160 3161 3163 3164 3166
3110 3109 3107 3105 3104 3105 3104 3103 3103 3103 3103 3104 3104 3104 3103 3103 3103 3104 3104 3106 3107 3107 3108 3109 3109 3110 3111 3112 3112 3114 3115 3115 3117 3118 3119 3121 3121 3121 3122 3123 3124 3124 3125 3125 3126 3127 3128 3130 3132 3133 3134 3135 3136 3137 3138 3140 3140 3139 3139 3140 3142 3142 3141 3142 3142 3142 3143 3146 3148 3150 3151 3151 3150 3149 3150 3152 3154 3155 3153 3152 3153 3154 3155 3157 3159 3160 3162 3164
3107 3106 3105 3104 3102 3102 3102 3101 3102 3102 3102 3103 3103 3103 3103 3103 3103 3104 3104 3106 3107 3107 3109 3110 3110 3111 3111 3112 3113 3114 3115 3116 3117 3118 3119 3120 3120 3120 3121 3122 3123 3123 3123 3124 3124 3125 3126 3127 3128 3130 3132 3133 3134 3135 3137 3138 3139 3139 3139 3139 3140 3142 3140 3140 3141 3140 3140 3141 3143 3146 3147 3148 3147 3146 3147 3150 3151 3150 3148 3147 3149 3152 3154 3155 3157 3159 3161 3163
3105 3103 3103 3102 3100 3100 3099 3100 3100 3100 3100 3101 3101 3102 3102 3103 3103 3104 3104 3107 3108 3108 3109 3110 3111 3112 3112 3112 3113 3114 3115 3116 3116 3117 3119 3119 3120 3120 3120 3121 3122 3122 3122 3123 3123 3123 3124 3126 3127 3128 3130 3131 3132 3134 3135 3137 3138 3139 3139 3139 3139 3141 3141 3140 3140 3140 3139 3138 3139 3142 3144 3145 3145 3144 3144 3145 3145 3145 3144 3144 3148 3151 3152 3154 3155 3157 3159 3160
3103 3101 3100 3100 3099 3098 3098 3098 3099 3099 3100 3100 3101 3102 3102 3103 3104 3104 3105 3107 3108 3109 3110 3110 3111 3112 3112 3112 3113 3114 3115 3116 3117 3118 3119 3119 3120 3120 3120 3121 3121 3121 3121 3122 3122 3122 3123 3125 3127 3128 3129 3130 3131 3132 3133 3135 3136 3138 3138 3138 3138 3138 3139 3139 3139 3139 3140 3137 3137 3140 3142 3142 3142 3141 3141 3141 3141 3141 3142 3143 3145 3148 3150 3151 3152 3154 3156 3158
3101 3100 3099 3098 3098 3097 3097 3098 3098 3099 3099 3100 3101 3102 3103 3103 3104 3105 3105 3106 3108 3110 3110 3111 3111 3112 3112 3112 3113 3114 3115 3116 3117 3118 3119 3119 3120 3120 3120 3120 3120 3120 3120 3121 3122 3121 3121 3123 3126 3127 3129 3130 3130 3130 3131 3132 3133 3135 3136 3136 3137 3137 3138 3139 3139 3139 3139 3136 3135 3137 3139 3139 3139 3138 3139 3139 3139 3140 3141 3142 3144 3146 3148 3149 3150 3152 3154 3156
3100 3099 3098 3098 3098 3097 3098 3098 3098 3099 3100 3101 3102 3103 3103 3103 3105 3107 3107 3106 3108 3110 3110 3111 3111 3111 3112 3113 3113 3115 3115 3116 3117 3118 3118 3119 3119 3119 3119 3119 3119 3120 3120 3120 3120 3120 3120 3121 3124 3125 3127 3127 3128 3129 3130 3131 3132 3133 3134 3134 3135 3136 3139 3141 3140 3139 3138 3135 3133 3135 3138 3137 3136 3136 3137 3138 3138 3139 3140 3141 3143 3145 3146 3148 3149 3150 3152 3154
3099 3099 3099 3099 3099 3098 3099 3099 3099 3100 3101 3102 3104 3104 3103 3104 3106 3108 3108 3107 3108 3109 3109 3110 3110 3111 3112 3113 3113 3115 3115 3116 3117 3117 3116 3117 3118 3118 3118 3118 3118 3119 3120 3120 3120 3121 3121 3121 3122 3123 3124 3124 3125 3126 3128 3129 3130 3131 3132 3134 3134 3134 3137 3139 3139 3138 3138 3136 3134 3134 3135 3135 3134 3135 3136 3137 3138 3139 3139 3140 3141 3142 3144 3147 3149 3150 3151 3152
3100 3100 3100 3100 3100 3100 3100 3100 3101 3102 3103 3104 3105 3104 3104 3106 3108 3108 3108 3109 3109 3109 3109 3109 3110 3110 3111 3113 3114 3115 3115 3116 3117 3116 3115 3117 3118 3118 3118 3118 3118 3119 3119 3119 3120 3120 3121 3121 3121 3122 3123 3123 3123 3124 3126 3126 3127 3129 3131 3132 3133 3134 3135 3136 3137 3137 3137 3137 3136 3134 3133 3133 3133 3133 3134 3135 3136 3137 3138 3139 3140 3140 3141 3144 3146 3148 3149 3150
3102 3102 3102 3102 3102 3102 3102 3103 3104 3105 3105 3104 3103 3104 3107 3109 3110 3109 3110 3110 3110 3110 3109 3109 3110 3110 3111 3113 3114 3114 3114 3115 3116 3116 3116 3117 3117 3118 3119 3119 3119 3118 3118 3119 3120 3120 3120 3119 3120 3122 3123 3123 3124 3125 3125 3125 3126 3129 3130 3131 3132 3134 3135 3135 3136 3136 3137 3138 3137 3135 3133 3133 3132 3131 3130 3132 3133 3134 3135 3136 3137 3138 3139 3140 3142 3144 3146 3148
3105 3104 3104 3104 3104 3104 3105 3106 3106 3106 3105 3104 3104 3107 3110 3111 3111 3111 3110 3110 3111 3111 3109 3109 3110 3111 3112 3113 3112 3112 3113 3113 3114 3115 3116 3117 3118 3120 3120 3119 3120 3119 3119 3119 3120 3120 3120 3117 3118 3120 3122 3123 3123 3124 3125 3125 3127 3128 3130 3131 3132 3133 3134 3135 3135 3135 3136 3138 3136 3134 3134 3134 3134 3131 3129 3130 3130 3130 3131 3132 3133 3135 3136 3137 3139 3141 3143 3145
3107 3106 3106 3106 3106 3106 3107 3108 3107 3106 3105 3105 3106 3109 3111 3111 3112 3112 3111 3111 3111 3111 3110 3110 3111 3112 3112 3112 3113 3113 3112 3113 3115 3116 3116 3117 3119 3121 3120 3120 3121 3120 3119 3119 3119 3120 3120 3118 3116 3118 3120 3121 3122 3123 3124 3124 3126 3128 3129 3129 3130 3131 3132 3133 3135 3134 3136 3138 3136 3134 3134 3134 3134 3131 3129 3130 3129 3128 3128 3129 3129 3130 3132 3133 3136 3138 3140 3143
3109 3108 3108 3108 3109 3109 3109 3109 3108 3107 3107 3107 3108 3110 3111 3112 3112 3112 3112 3112 3111 3111 3111 3112 3112 3111 3112 3113 3114 3114 3114 3115 3117 3116 3116 3118 3120 3121 3120 3120 3121 3120 3120 3120 3120 3121 3121 3119 3116 3115 3118 3120 3122 3123 3123 3123 3124 3125 3126 3127 3129 3130 3130 3131 3132 3132 3134 3136 3135 3134 3133 3133 3134 3132 3129 3128 3126 3124 3125 3125 3126 3127 3128 3131 3133 3135 3138 3140
3110 3110 3110 3110 3111 3111 3111 3110 3110 3109 3108 3109 3111 3112 3112 3112 3113 3114 3113 3112 3111 3111 3112 3112 3112 3111 3112 3114 3115 3116 3116 3117 3117 3116 3117 3119 3120 3121 3120 3120 3121 3121 3120 3120 3120 3121 3122 3122 3117 3114 3116 3119 3122 3124 3124 3125 3125 3125 3126 3127 3128 3128 3128 3129 3130 3130 3132 3133 3134 3134 3133 3132 3133 3132 3128 3125 3123 3121 3121 3121 3121 3122 3125 3128 3130 3133 3135 3137
3112 3112 3112 3112 3111 3111 3111 3111 3110 3110 3110 3111 3112 3113 3113 3113 3114 3115 3114 3113 3112 3112 3112 3112 3112 3112 3113 3115 3116 3117 3118 3118 3117 3117 3118 3120 3121 3121 3121 3121 3121 3121 3120 3120 3121 3121 3122 3123 3119 3115 3115 3118 3121 3124 3125 3126 3128 3129 3130 3130 3130 3129 3128 3128 3128 3128 3130 3130 3131 3132 3131 3130 3131 3130 3127 3123 3120 3118 3117 3117 3117 3119 3123 3126 3128 3130 3133 3135
3113 3113 3113 3112 3111 3111 3111 3111 3111 3111 3112 3112 3113 3113 3114 3114 3114 3115 3115 3114 3112 3113 3113 3113 3113 3114 3114 3116 3117 3118 3118 3119 3119 3119 3119 3120 3121 3121 3122 3123 3122 3122 3122 3122 3122 3123 3123 3123 3121 3117 3114 3116 3119 3122 3124 3126 3128 3130 3131 3131 3131 3130 3129 3130 3129 3127 3127 3127 3128 3128 3128 3128 3129 3127 3125 3121 3118 3116 3113 3112 3113 3116 3120 3123 3125 3128 3131 3134
3114 3113 3113 3112 3112 3112 3111 3111 3112 3112 3112 3113 3114 3114 3114 3114 3114 3114 3115 3114 3113 3114 3114 3114 3114 3115 3115 3116 3118 3118 3118 3120 3121 3120 3120 3120 3121 3121 3122 3123 3122 3122 3122 3123 3123 3124 3124 3124 3122 3119 3114 3114 3118 3122 3123 3124 3126 3128 3129 3129 3130 3130 3130 3131 3130 3128 3126 3126 3126 3126 3127 3127 3126 3125 3124 3121 3117 3113 3108 3107 3110 3112 3115 3118 3122 3125 3129 3132
3115 3114 3114 3113 3113 3113 3112 3112 3114 3113 3113 3114 3114 3114 3114 3114 3114 3114 3114 3114 3114 3115 3114 3115 3115 3116 3116 3116 3117 3118 3118 3119 3120 3121 3121 3120 3121 3121 3121 3122 3122 3121 3121 3122 3123 3124 3125 3125 3124 3123 3119 3115 3117 3122 3122 3121 3123 3126 3128 3129 3129 3129 3129 3128 3127 3127 3126 3126 3126 3127 3127 3127 3126 3124 3123 3121 3117 3112 3108 3107 3108 3110 3113 3116 3118 3123 3127 3131
3115 3114 3115 3114 3114 3114 3114 3115 3115 3115 3114 3114 3114 3114 3114 3114 3114 3115 3115 3115 3115 3115 3115 3116 3116 3116 3117 3117 3117 3117 3118 3119 3120 3121 3121 3121 3121 3121 3121 3121 3121 3121 3121 3122 3122 3123 3125 3125 3125 3126 3126 3121 3120 3125 3126 3124 3122 3124 3127 3128 3128 3128 3129 3128 3127 3127 3125 3124 3125 3126 3127 3127 3125 3123 3120 3119 3117 3114 3111 3108 3107 3109 3113 3116 3119 3123 3127 3131
3116 3115 3115 3115 3115 3114 3115 3116 3116 3116 3115 3115 3114 3115 3115 3115 3116 3116 3116 3116 3116 3116 3116 3116 3117 3116 3117 3117 3117 3118 3118 3118 3119 3120 3120 3121 3121 3121 3121 3120 3120 3121 3120 3120 3121 3122 3124 3125 3124 3125 3126 3124 3123 3126 3128 3127 3124 3123 3125 3127 3127 3128 3129 3129 3128 3127 3126 3125 3123 3125 3126 3125 3123 3121 3119 3118 3118 3116 3113 3110 3109 3110 3112 3115 3119 3122 3125 3128
3116 3116 3116 3116 3115 3115 3115 3116 3116 3116 3116 3115 3115 3116 3116 3116 3117 3117 3117 3117 3117 3117 3117 3117 3117 3117 3117 3117 3117 3118 3118 3118 3119 3119 3119 3120 3120 3120 3120 3120 3120 3120 3119 3119 3120 3121 3121 3122 3123 3123 3123 3123 3123 3124 3126 3127 3125 3123 3124 3125 3126 3127 3128 3128 3127 3126 3127 3125 3123 3123 3125 3125 3123 3122 3120 3119 3119 3119 3116 3113 3111 3111 3112 3114 3116 3119 3121 3123
3117 3117 3117 3117 3117 3116 3116 3115 3116 3116 3116 3116 3116 3117 3117 3117 3117 3118 3118 3117 3117 3117 3117 3118 3118 3118 3118 3118 3118 3118 3119 3119 3119 3119 3119 3119 3119 3119 3119 3119 3119 3119 3119 3119 3119 3119 3120 3120 3121 3121 3121 3121 3121 3122 3123 3124 3123 3122 3123 3124 3124 3125 3126 3126 3125 3125 3126 3125 3123 3123 3125 3125 3124 3122 3121 3120 3119 3119 3119 3116 3113 3111 3112 3113 3114 3116 3118 3120
3118 3118 3118 3118 3118 3117 3116 3116 3116 3117 3116 3116 3117 3117 3118 3118 3118 3118 3118 3118 3117 3118 3118 3118 3119 3119 3119 3119 3119 3119 3119 3119 3119 3119 3119 3118 3118 3118 3118 3118 3118 3119 3119 3119 3119 3119 3119 3120 3120 3119 3118 3118 3119 3119 3121 3121 3120 3120 3121 3123 3123 3122 3123 3123 3123 3123 3124 3123 3122 3123 3125 3124 3123 3122 3122 3120 3119 3119 3119 3118 3116 3113 3112 3112 3112 3113 3116 3118
3119 3119 3118 3118 3118 3118 3117 3117 3117 3117 3117 3117 3118 3118 3118 3118 3118 3119 3119 3118 3118 3119 3119 3119 3119 3119 3119 3119 3119 3119 3119 3119 3120 3119 3119 3119 3118 3118 3117 3117 3117 3118 3118 3118 3119 3118 3118 3119 3119 3118 3116 3116 3117 3118 3118 3118 3117 3116 3117 3120 3121 3120 3120 3120 3120 3121 3121 3120 3120 3122 3123 3123 3122 3121 3121 3120 3119 3119 3118 3118 3118 3115 3113 3112 3113 3112 3113 3116
3120 3120 3119 3119 3119 3118 3118 3118 3118 3117 3117 3117 3118 3119 3119 3118 3119 3119 3119 3119 3119 3119 3120 3120 3120 3120 3120 3120 3119 3119 3119 3119 3119 3119 3118 3118 3118 3118 3118 3117 3117 3117 3117 3118 3118 3118 3118 3118 3117 3117 3116 3114 3115 3116 3116 3115 3113 3112 3114 3118 3120 3119 3118 3117 3117 3118 3118 3117 3118 3119 3120 3121 3120 3118 3118 3119 3119 3119 3118 3118 3118 3117 3114 3113 3114 3114 3114 3115
3122 3121 3121 3120 3120 3119 3119 3119 3118 3117 3117 3117 3118 3118 3118 3118 3119 3119 3119 3120 3120 3120 3120 3120 3121 3120 3120 3120 3119 3119 3119 3118 3118 3118 3117 3117 3117 3117 3117 3116 3116 3116 3116 3117 3117 3117 3117 3117 3116 3116 3115 3113 3114 3115 3114 3114 3112 3108 3110 3116 3118 3117 3116 3115 3114 3114 3114 3113 3114 3116 3117 3118 3117 3115 3115 3116 3117 3117 3117 3117 3117 3116 3114 3113 3113 3114 3114 3115